This is the latest recevied weather packets stored in our database for station/object KY0TEQ-13. If no packets are shown the sender has not sent any weather packets the latest 10 day(s).
| Time | Temp. | Humidity | Pressure | Rain* | Wind** | Luminosity | Snow |
|---|---|---|---|---|---|---|---|
| 1777988245 | 8.33° C | 36% | 1297.8 hPa | 0 mm | - | 64 W/m² | - |
| 1777987941 | 8.33° C | 35% | 1297.8 hPa | 0 mm | - | 59 W/m² | - |
| 1777987637 | 8.33° C | 36% | 1297.8 hPa | 0 mm | - | 64 W/m² | - |
| 1777987335 | 8.33° C | 36% | 1297.9 hPa | 0 mm | - | 72 W/m² | - |
| 1777987032 | 7.78° C | 37% | 1298.1 hPa | 0 mm | - | 60 W/m² | - |
| 1777986729 | 7.78° C | 38% | 1298.1 hPa | 0 mm | - | 54 W/m² | - |
| 1777986426 | 7.78° C | 37% | 1298.1 hPa | 0 mm | - | 39 W/m² | - |
| 1777986125 | 7.78° C | 37% | 1297.9 hPa | 0 mm | - | 27 W/m² | - |
| 1777985821 | 7.78° C | 37% | 1297.9 hPa | 0 mm | - | 15 W/m² | - |
| 1777985519 | 7.78° C | 37% | 1297.9 hPa | 0 mm | - | 15 W/m² | - |
| 1777985215 | 7.78° C | 37% | 1297.9 hPa | 0 mm | - | 14 W/m² | - |
| 1777984912 | 7.22° C | 37% | 1297.8 hPa | 0 mm | - | 10 W/m² | - |
| 1777984607 | 7.22° C | 36% | 1297.8 hPa | 0 mm | - | 7 W/m² | - |
| 1777984305 | 7.22° C | 36% | 1297.8 hPa | 0 mm | - | 6 W/m² | - |
| 1777984001 | 7.22° C | 35% | 1297.9 hPa | 0 mm | - | 4 W/m² | - |
| 1777983698 | 7.78° C | 35% | 1297.8 hPa | 0 mm | - | 3 W/m² | - |
| 1777983394 | 7.78° C | 34% | 1297.8 hPa | 0 mm | - | 2 W/m² | - |
| 1777983092 | 7.78° C | 33% | 1297.4 hPa | 0 mm | - | 2 W/m² | - |
| 1777982787 | 8.33° C | 33% | 1297.7 hPa | 0 mm | - | 1 W/m² | - |
| 1777982483 | 7.78° C | 33% | 1297.4 hPa | 0 mm | - | 0 W/m² | - |
| 1777982177 | 7.78° C | 33% | 1297.7 hPa | 0 mm | - | 0 W/m² | - |
| 1777981875 | 7.78° C | 34% | 1297.6 hPa | 0 mm | - | 0 W/m² | - |
| 1777981572 | 7.22° C | 35% | 1297.8 hPa | 0 mm | - | 0 W/m² | - |
| 1777981268 | 7.22° C | 34% | 1297.8 hPa | 0 mm | - | 0 W/m² | - |
| 1777980965 | 7.78° C | 34% | 1297.8 hPa | 0 mm | - | 0 W/m² | - |
* Rain latest hour (hover to see other rain measurements)
** Current wind speed in m/s (hover to see current wind gust speed)